When you browse on this site, cookies collect data to enhance your experience and personalize the content and advertising you see.
Visit our Privacy Policy to learn more. By continuing to use the site, you agree to this use of cookies and data.
  • In Hungary
  • List of Countries
  • For 7 days
  • Water Temperature
  • Weather Map
  • News
  • Weather Widgets
  • user-avatar
    Login

    Hourly Weather Bishkain

    Today, 13 October, Sunday

    Time Temperature Precipitation Wind Pressure Humidity
    00:00 +7°C° 0.1 mm 2 mps 748 mmHg 95%
    01:00 +7°C° 0.1 mm 2 mps 748 mmHg 96%
    02:00 +7°C° 0 mm 2 mps 748 mmHg 96%
    03:00 +7°C° 0 mm 2 mps 748 mmHg 95%
    04:00 +7°C° 0 mm 2 mps 748 mmHg 93%
    05:00 +7°C° 0 mm 2 mps 747 mmHg 94%
    06:00 +6°C° 0 mm 2 mps 747 mmHg 94%
    07:00 +6°C° 0 mm 2 mps 747 mmHg 94%
    08:00 +7°C° 0 mm 3 mps 746 mmHg 89%
    09:00 +7°C° 0 mm 4 mps 746 mmHg 84%
    10:00 +8°C° 0 mm 5 mps 746 mmHg 80%
    11:00 +9°C° 0 mm 6 mps 745 mmHg 76%
    12:00 +9°C° 0 mm 6 mps 744 mmHg 72%
    13:00 +10°C° 0 mm 7 mps 744 mmHg 69%
    14:00 +9°C° 0.5 mm 7 mps 743 mmHg 72%
    15:00 +9°C° 0.5 mm 7 mps 743 mmHg 76%
    16:00 +8°C° 0 mm 7 mps 742 mmHg 81%
    17:00 +8°C° 1.4 mm 7 mps 742 mmHg 83%
    18:00 +7°C° 1.4 mm 8 mps 741 mmHg 86%
    19:00 +7°C° 1.4 mm 8 mps 741 mmHg 89%
    20:00 +8°C° 0.5 mm 7 mps 740 mmHg 88%
    21:00 +8°C° 0.5 mm 6 mps 740 mmHg 88%
    22:00 +8°C° 0.5 mm 5 mps 740 mmHg 88%
    23:00 +8°C° 0.2 mm 5 mps 740 mmHg 88%

    Tomorrow, 14 October, Monday

    Time Temperature Precipitation Wind Pressure Humidity
    00:00 +8°C° 0.2 mm 5 mps 740 mmHg 89%
    01:00 +7°C° 0.2 mm 4 mps 739 mmHg 90%
    02:00 +7°C° 0.1 mm 4 mps 740 mmHg 87%
    03:00 +7°C° 0.1 mm 5 mps 740 mmHg 84%
    04:00 +7°C° 0.1 mm 5 mps 740 mmHg 82%
    05:00 +7°C° 0 mm 5 mps 740 mmHg 84%
    06:00 +6°C° 0 mm 5 mps 740 mmHg 85%
    07:00 +6°C° 0 mm 5 mps 740 mmHg 87%
    08:00 +5°C° 0 mm 6 mps 740 mmHg 84%
    09:00 +7°C° 0 mm 6 mps 741 mmHg 80%
    10:00 +7°C° 0 mm 6 mps 741 mmHg 77%
    11:00 +6°C° 0.1 mm 7 mps 741 mmHg 76%
    12:00 +8°C° 0.1 mm 7 mps 742 mmHg 75%
    13:00 +8°C° 0.1 mm 7 mps 742 mmHg 74%
    14:00 +8°C° 0.1 mm 7 mps 743 mmHg 72%
    15:00 +8°C° 0.1 mm 6 mps 743 mmHg 71%
    16:00 +8°C° 0.1 mm 6 mps 744 mmHg 70%
    17:00 +8°C° 0.1 mm 6 mps 744 mmHg 73%
    18:00 +7°C° 0.1 mm 5 mps 744 mmHg 75%
    19:00 +7°C° 0.1 mm 4 mps 745 mmHg 78%
    20:00 +7°C° 0.2 mm 5 mps 745 mmHg 80%
    21:00 +6°C° 0.2 mm 5 mps 745 mmHg 83%
    22:00 +6°C° 0.2 mm 5 mps 745 mmHg 85%
    23:00 +6°C° 0 mm 5 mps 745 mmHg 86%

    Day after tomorrow, 15 October, Tuesday

    Time Temperature Precipitation Wind Pressure Humidity
    00:00 +6°C° 0 mm 5 mps 745 mmHg 86%
    01:00 +6°C° 0 mm 5 mps 745 mmHg 87%
    02:00 +5°C° 0 mm 4 mps 745 mmHg 89%
    03:00 +5°C° 0 mm 4 mps 745 mmHg 90%
    04:00 +4°C° 0 mm 4 mps 745 mmHg 92%
    05:00 +5°C° 0.1 mm 4 mps 745 mmHg 91%
    06:00 +5°C° 0.1 mm 4 mps 744 mmHg 91%
    07:00 +5°C° 0.1 mm 4 mps 744 mmHg 90%
    08:00 +5°C° 1.5 mm 5 mps 743 mmHg 91%
    09:00 +5°C° 1.5 mm 6 mps 742 mmHg 91%
    10:00 +5°C° 1.5 mm 7 mps 740 mmHg 92%
    11:00 +6°C° 1.8 mm 7 mps 739 mmHg 92%
    12:00 +8°C° 1.8 mm 7 mps 738 mmHg 92%
    13:00 +9°C° 1.8 mm 8 mps 737 mmHg 91%
    14:00 +10°C° 0.3 mm 7 mps 737 mmHg 90%
    15:00 +10°C° 0.3 mm 7 mps 737 mmHg 88%
    16:00 +11°C° 0.3 mm 7 mps 736 mmHg 86%
    17:00 +10°C° 0.4 mm 7 mps 737 mmHg 86%
    18:00 +10°C° 0.4 mm 6 mps 738 mmHg 85%
    19:00 +9°C° 0.4 mm 6 mps 738 mmHg 85%
    20:00 +8°C° 0 mm 6 mps 739 mmHg 85%
    21:00 +5°C° 0 mm 6 mps 740 mmHg 84%
    22:00 +4°C° 0 mm 6 mps 741 mmHg 84%
    23:00 +4°C° 0 mm 6 mps 741 mmHg 84%

    16 October, Wednesday

    Time Temperature Precipitation Wind Pressure Humidity
    00:00 +3°C° 0 mm 6 mps 742 mmHg 83%
    01:00 +3°C° 0 mm 5 mps 743 mmHg 83%
    02:00 +3°C° 0 mm 5 mps 744 mmHg 83%
    03:00 +3°C° 0 mm 5 mps 745 mmHg 83%
    04:00 +3°C° 0 mm 5 mps 745 mmHg 82%
    05:00 +2°C° 0 mm 5 mps 746 mmHg 84%
    06:00 +2°C° 0 mm 5 mps 746 mmHg 85%
    07:00 +1°C° 0 mm 5 mps 747 mmHg 86%
    08:00 +2°C° 0 mm 5 mps 747 mmHg 81%
    09:00 +2°C° 0 mm 5 mps 748 mmHg 76%
    10:00 +3°C° 0 mm 6 mps 748 mmHg 71%
    11:00 +3°C° 0 mm 6 mps 749 mmHg 70%
    12:00 +3°C° 0 mm 6 mps 749 mmHg 68%
    13:00 +3°C° 0 mm 5 mps 749 mmHg 66%
    14:00 +3°C° 0 mm 6 mps 750 mmHg 67%
    15:00 +2°C° 0 mm 6 mps 750 mmHg 68%
    16:00 +2°C° 0 mm 6 mps 751 mmHg 68%
    17:00 +1°C° 0 mm 6 mps 751 mmHg 69%
    18:00 +1°C° 0 mm 5 mps 751 mmHg 69%
    19:00 +1°C° 0 mm 5 mps 752 mmHg 70%
    20:00 +1°C° 0 mm 4 mps 752 mmHg 70%
    21:00 0°C° 0 mm 4 mps 753 mmHg 70%
    22:00 0°C° 0 mm 4 mps 753 mmHg 71%
    23:00 +1°C° 0 mm 3 mps 753 mmHg 72%

    17 October, Thursday

    Time Temperature Precipitation Wind Pressure Humidity
    00:00 +1°C° 0 mm 3 mps 753 mmHg 74%
    01:00 +2°C° 0 mm 2 mps 753 mmHg 76%
    02:00 +1°C° 0 mm 2 mps 754 mmHg 79%
    03:00 +1°C° 0 mm 2 mps 754 mmHg 81%
    04:00 -1°C° 0 mm 2 mps 754 mmHg 84%
    05:00 -1°C° 0 mm 2 mps 754 mmHg 84%
    06:00 -1°C° 0 mm 2 mps 754 mmHg 84%
    07:00 +1°C° 0 mm 1 mps 755 mmHg 84%
    08:00 +1°C° 0 mm 2 mps 755 mmHg 79%
    09:00 +2°C° 0 mm 2 mps 754 mmHg 75%
    10:00 +3°C° 0 mm 2 mps 754 mmHg 70%
    11:00 +2°C° 0 mm 3 mps 754 mmHg 69%
    12:00 +3°C° 0 mm 3 mps 754 mmHg 69%
    13:00 +3°C° 0 mm 3 mps 754 mmHg 68%
    14:00 +3°C° 0.1 mm 4 mps 754 mmHg 76%
    15:00 +1°C° 0.1 mm 4 mps 753 mmHg 83%
    16:00 +1°C° 0.1 mm 4 mps 753 mmHg 91%
    17:00 +1°C° 0 mm 4 mps 752 mmHg 88%
    18:00 +1°C° 0 mm 4 mps 752 mmHg 86%
    19:00 +1°C° 0 mm 4 mps 751 mmHg 83%
    20:00 +1°C° 0 mm 4 mps 751 mmHg 82%
    21:00 +1°C° 0 mm 4 mps 750 mmHg 81%
    22:00 +2°C° 0 mm 5 mps 750 mmHg 80%
    23:00 +2°C° 0 mm 5 mps 749 mmHg 78%

    18 October, Friday

    Time Temperature Precipitation Wind Pressure Humidity
    00:00 +2°C° 0 mm 6 mps 748 mmHg 75%
    01:00 +2°C° 0 mm 6 mps 748 mmHg 73%
    02:00 +3°C° 0.2 mm 6 mps 747 mmHg 73%
    03:00 +3°C° 0.2 mm 6 mps 746 mmHg 72%
    04:00 +3°C° 0.2 mm 6 mps 746 mmHg 72%
    05:00 +3°C° 0.7 mm 6 mps 745 mmHg 75%
    06:00 +3°C° 0.7 mm 6 mps 745 mmHg 78%
    07:00 +3°C° 0.7 mm 5 mps 744 mmHg 81%
    08:00 +3°C° 0.5 mm 5 mps 744 mmHg 82%
    09:00 +3°C° 0.5 mm 5 mps 744 mmHg 83%
    10:00 +3°C° 0.5 mm 5 mps 743 mmHg 84%
    11:00 +3°C° 0.5 mm 5 mps 743 mmHg 85%
    12:00 +5°C° 0.5 mm 5 mps 743 mmHg 86%
    13:00 +5°C° 0.5 mm 5 mps 743 mmHg 87%
    14:00 +5°C° 0 mm 5 mps 743 mmHg 88%
    15:00 +5°C° 0 mm 5 mps 742 mmHg 89%
    16:00 +5°C° 0 mm 4 mps 742 mmHg 90%
    17:00 +5°C° 0.8 mm 4 mps 742 mmHg 92%
    18:00 +5°C° 0.8 mm 4 mps 742 mmHg 93%
    19:00 +4°C° 0.8 mm 4 mps 742 mmHg 95%
    20:00 +4°C° 1 mm 4 mps 742 mmHg 95%
    21:00 +2°C° 1 mm 5 mps 742 mmHg 94%
    22:00 +2°C° 1 mm 6 mps 742 mmHg 94%
    23:00 +1°C° 0.3 mm 6 mps 743 mmHg 94%
    Show more